Regional Weather Roundup
Issued by NWS

Home | Current Version | Previous Version | Text Only | Print | Product List | Glossary Off
Versions: 1 2 3 4 5 6 7 8 9 10 11 12 13 14 15 16 17 18 19 20 21 22 23 24 25 26 27 28 29 30 31 32 33 34 35 36 37 38 39 40 41 42 43 44 45 46 47 48 49 50

000
ASUS45 KPSR 231200
RWRAZ

PRELIMINARY ARIZONA REGIONAL HOURLY WEATHER ROUNDUP
NATIONAL WEATHER SERVICE PHOENIX AZ
500 AM MST WED JUL 23 2014

NOTE: FAIR INDICATES FEW OR NO CLOUDS BELOW 12,000 FEET WITH NO
SIGNIFICANT WEATHER AND/OR OBSTRUCTIONS TO VISIBILITY.

AZZ001>003-036-231300-
NORTHWEST ARIZONA

CITY           SKY/WX    TMP DP  RH WIND       PRES   REMARKS
KINGMAN        CLEAR     71  36  27 SE9       30.09R
6HR MIN TEMP:  70; 6HR MAX TEMP:  81;

$$

AZZ004>008-015-016-018-231300-
NORTH CENTRAL ARIZONA

CITY           SKY/WX    TMP DP  RH WIND       PRES   REMARKS
GRAND CANYON   PTCLDY    55  42  61 E3        30.37S
6HR MIN TEMP:  53; 6HR MAX TEMP:  68;

WILLIAMS       PTCLDY    57  37  47 S9        30.44R
PRESCOTT       PTCLDY    70  38  31 S7        30.23S
6HR MIN TEMP:  67; 6HR MAX TEMP:  79;

FLAGSTAFF      PTCLDY    56  41  57 CALM      30.41R
6HR MIN TEMP:  55; 6HR MAX TEMP:  63;

PAYSON         MOCLDY    73  48  40 CALM      30.28R
PAGE           PTCLDY    80  38  22 S3        30.16R
6HR MIN TEMP:  80; 6HR MAX TEMP:  92;

$$

AZZ009>014-017-231300-
NORTHEAST ARIZONA

CITY           SKY/WX    TMP DP  RH WIND       PRES   REMARKS
WINSLOW        NOT AVBL
SAINT JOHNS    PTCLDY    67  51  56 SW3       30.32R
6HR MIN TEMP:  66; 6HR MAX TEMP:  78;

WINDOW ROCK    CLEAR     58  46  64 CALM      30.44R
6HR MIN TEMP:  58; 6HR MAX TEMP:  74;

$$

AZZ023-231300-
GREATER PHOENIX AREA

CITY           SKY/WX    TMP DP  RH WIND       PRES   REMARKS
PHOENIX        MOCLDY    95  52  23 NE3       29.86S
6HR MIN TEMP:  94; 6HR MAX TEMP: 103;

BUCKEYE          N/A     86  46  25 W3        29.87S
LUKE AFB       NOT AVBL
6HR MIN TEMP:  87; 6HR MAX TEMP:  99;

DEER VALLEY    MOCLDY    93  49  22 CALM      29.90S
6HR MIN TEMP:  91; 6HR MAX TEMP:  97;

SCOTTSDALE     MOCLDY    95  52  23 CALM      29.92R
6HR MIN TEMP:  92; 6HR MAX TEMP: 100;

MESA-GATEWAY   PTCLDY    93  54  26 SE12      29.92R
$$

AZZ027-028-231300-
SOUTHWEST MARICOPA COUNTY AND PINAL COUNTY

CITY           SKY/WX    TMP DP  RH WIND       PRES   REMARKS
CASA GRANDE    CLOUDY    90  50  25 CALM      29.91R
6HR MIN TEMP:  90; 6HR MAX TEMP:  99;

$$

AZZ503-504-507>509-231300-
SOUTHEAST ARIZONA

CITY           SKY/WX    TMP DP  RH WIND       PRES   REMARKS
TUCSON         PTCLDY    87  58  37 SE12      30.03F
6HR MIN TEMP:  87; 6HR MAX TEMP: 100;

DAVIS-MONTHAN  MOCLDY    85  59  41 SE14      30.01F
6HR MIN TEMP:  85; 6HR MAX TEMP:  97; 6HR PCP:  0.01;

NOGALES        MOCLDY    75  57  53 NE3       30.13S
6HR MIN TEMP:  75; 6HR MAX TEMP:  85;

SIERRA VISTA   MOCLDY    72  55  56 W8        30.18F
                                      6HR PCP:  0.01;

SAFFORD        CLEAR     80  59  48 SE9       30.11R
6HR MIN TEMP:  80; 6HR MAX TEMP:  87;

$$

AZZ020-021-025-026-031-231300-
SOUTHWEST ARIZONA

CITY           SKY/WX    TMP DP  RH WIND       PRES   REMARKS
YUMA           CLEAR     87  50  27 CALM      29.81R
6HR MIN TEMP:  86; 6HR MAX TEMP:  96;

$$

CAZ031-033-041-043-047-048-061-231300-
SOUTHERN CALIFORNIA

CITY           SKY/WX    TMP DP  RH WIND       PRES   REMARKS
DOWNTOWN L.A.  CLEAR     66  60  81 CALM      29.98S
6HR MIN TEMP:  66; 6HR MAX TEMP:  72;

L.A. AIRPORT   PTCLDY    65  61  87 CALM      29.99S
6HR MIN TEMP:  65; 6HR MAX TEMP:  70;

SAN DIEGO      PTCLDY    68  62  81 N5        30.00S
6HR MIN TEMP:  68; 6HR MAX TEMP:  71;

BURBANK        CLEAR     68  50  52 CALM      29.99S
6HR MIN TEMP:  68; 6HR MAX TEMP:  75;

ONTARIO        PTCLDY    68  53  58 CALM      30.00S
6HR MIN TEMP:  67; 6HR MAX TEMP:  74;

RIVERSIDE      CLEAR     65  52  62 CALM      30.00S
6HR MIN TEMP:  65; 6HR MAX TEMP:  75;

PALM SPRINGS   CLEAR     82  51  34 CALM      29.86S
6HR MIN TEMP:  81; 6HR MAX TEMP:  95;

EL CENTRO NAS  CLEAR     81  42  25 NW5       29.80S
6HR MIN TEMP:  79; 6HR MAX TEMP:  92;

IMPERIAL       CLEAR     84  47  27 NW5       29.80R
6HR MIN TEMP:  77; 6HR MAX TEMP:  89;

BLYTHE         CLEAR     88  33  14 N12       29.82S
6HR MIN TEMP:  86; 6HR MAX TEMP: 100;

$$

NVZ020-UTZ003-231300-
SOUTHERN NEVADA-UTAH

CITY           SKY/WX    TMP DP  RH WIND       PRES   REMARKS
LAS VEGAS      NOT AVBL
SALT LAKE CITY PTCLDY    74  38  27 SE10      30.10S
6HR MIN TEMP:  73; 6HR MAX TEMP:  79;

$$

NMZ009-TXZ055-231300-
NEW MEXICO-WEST TEXAS

CITY           SKY/WX    TMP DP  RH WIND       PRES   REMARKS
ALBUQUERQUE    PTCLDY    69  55  60 N8        30.35R
6HR MIN TEMP:  69; 6HR MAX TEMP:  77;

EL PASO        PTCLDY    71  66  84 NE7       30.20R
6HR MIN TEMP:  71; 6HR MAX TEMP:  77; 6HR PCP:  0.10;

$$


........................KEY........................
SKY/WX - SKY CONDITION/WEATHER
TMP    - TEMPERATURE IN FAHRENHEIT
DP     - DEW POINT IN FAHRENHEIT
RH     - RELATIVE HUMIDITY IN PERCENT
WIND   - DIRECTION AND SPEED IN MILES PER HOUR (MPH)
VRB    - VARIABLE WIND DIRECTION
PRES   - MEAN SEA LEVEL PRESSURE IN INCHES OF MERCURY
         F - FALLING PRESSURE   R - RISING PRESSURE
         S - STEADY PRESSURE
VSB    - VISIBILITY IN MILES
HX     - HEAT INDEX IN FAHRENHEIT
WCI    - WIND CHILL INDEX IN FAHRENHEIT
TC     - TEMPERATURE IN CELSIUS WHICH IS ALSO KNOWN AS
         TEMPERATURE IN CENTIGRADE
AFB    - AIR FORCE BASE
         LUKE AFB IS LUKE AIR FORCE BASE
         DAVIS-MONTHAN IS DAVIS-MONTHAN AIR FORCE BASE
NAS    - NAVAL AIR STATION
         EL CENTRO NAS IS EL CENTRO NAVAL AIR STATION
N/A    - NOT AVAILABLE


USA.gov is the U.S. government's official web portal to all federal, state and local government web resources and services.